TimeEST,TemperatureF,Dew PointF,Humidity,Sea Level PressureIn,VisibilityMPH,Wind Direction,Wind SpeedMPH,Gust SpeedMPH,PrecipitationIn,Events,Conditions,WindDirDegrees,DateUTC
12:15 AM,46.4,42.8,87,30.27,10.0,WSW,5.8,-,N/A,,Clear,240,2011-11-08 05:15:00
12:35 AM,48.2,42.8,82,30.27,10.0,WSW,6.9,-,N/A,,Clear,240,2011-11-08 05:35:00
12:55 AM,48.2,42.8,82,30.27,10.0,WSW,6.9,-,N/A,,Clear,240,2011-11-08 05:55:00
1:15 AM,48.2,42.8,82,30.27,10.0,WSW,5.8,-,N/A,,Clear,240,2011-11-08 06:15:00
1:35 AM,46.4,42.8,87,30.26,10.0,SW,4.6,-,N/A,,Clear,230,2011-11-08 06:35:00
1:55 AM,46.4,41.0,81,30.26,10.0,WSW,6.9,-,N/A,,Clear,240,2011-11-08 06:55:00
2:15 AM,46.4,41.0,81,30.25,10.0,SW,6.9,-,N/A,,Clear,230,2011-11-08 07:15:00
2:35 AM,46.4,41.0,81,30.25,10.0,WSW,6.9,-,N/A,,Clear,240,2011-11-08 07:35:00
2:55 AM,46.4,41.0,81,30.25,10.0,WSW,6.9,-,N/A,,Clear,250,2011-11-08 07:55:00
3:15 AM,44.6,41.0,87,30.24,10.0,WSW,6.9,-,N/A,,Clear,250,2011-11-08 08:15:00
3:35 AM,44.6,39.2,81,30.25,10.0,West,4.6,-,N/A,,Clear,260,2011-11-08 08:35:00
4:15 AM,44.6,41.0,87,30.25,10.0,WSW,5.8,-,N/A,,Clear,240,2011-11-08 09:15:00
4:35 AM,44.6,39.2,81,30.25,10.0,West,6.9,-,N/A,,Clear,260,2011-11-08 09:35:00
4:55 AM,42.8,39.2,87,30.25,10.0,West,5.8,-,N/A,,Clear,260,2011-11-08 09:55:00
5:15 AM,42.8,39.2,87,30.26,10.0,West,5.8,-,N/A,,Clear,270,2011-11-08 10:15:00
5:35 AM,42.8,39.2,87,30.26,10.0,West,5.8,-,N/A,,Clear,280,2011-11-08 10:35:00
5:55 AM,42.8,39.2,87,30.26,10.0,West,6.9,-,N/A,,Clear,280,2011-11-08 10:55:00
6:35 AM,44.6,39.2,81,30.26,10.0,WNW,5.8,-,N/A,,Clear,290,2011-11-08 11:35:00
7:35 AM,48.2,42.8,82,30.27,10.0,WNW,3.5,-,N/A,,Clear,290,2011-11-08 12:35:00
7:55 AM,50.0,42.8,76,30.28,10.0,WNW,4.6,-,N/A,,Clear,290,2011-11-08 12:55:00
8:35 AM,53.6,44.6,72,30.28,10.0,WNW,3.5,-,N/A,,Clear,300,2011-11-08 13:35:00
8:55 AM,55.4,44.6,67,30.28,10.0,NW,5.8,-,N/A,,Clear,320,2011-11-08 13:55:00
9:15 AM,59.0,44.6,59,30.28,10.0,NW,4.6,-,N/A,,Clear,320,2011-11-08 14:15:00
9:35 AM,60.8,44.6,55,30.28,10.0,NW,5.8,-,N/A,,Clear,310,2011-11-08 14:35:00
9:55 AM,64.4,46.4,52,30.28,10.0,NNW,3.5,-,N/A,,Clear,330,2011-11-08 14:55:00
10:15 AM,66.2,44.6,46,30.28,10.0,NNW,4.6,-,N/A,,Clear,340,2011-11-08 15:15:00
10:35 AM,68.0,46.4,46,30.27,10.0,North,3.5,-,N/A,,Clear,10,2011-11-08 15:35:00
10:55 AM,68.0,46.4,46,30.27,10.0,Calm,Calm,-,N/A,,Clear,0,2011-11-08 15:55:00
11:15 AM,66.2,48.2,52,30.27,10.0,East,9.2,-,N/A,,Clear,90,2011-11-08 16:15:00
11:35 AM,64.4,46.4,52,30.26,10.0,East,8.1,-,N/A,,Clear,90,2011-11-08 16:35:00
12:55 PM,66.2,46.4,49,30.24,10.0,ESE,6.9,-,N/A,,Clear,110,2011-11-08 17:55:00
1:15 PM,66.2,46.4,49,30.24,10.0,East,6.9,-,N/A,,Clear,80,2011-11-08 18:15:00
1:35 PM,64.4,46.4,52,30.23,10.0,ESE,8.1,-,N/A,,Clear,110,2011-11-08 18:35:00
1:55 PM,64.4,46.4,52,30.23,10.0,East,6.9,-,N/A,,Clear,90,2011-11-08 18:55:00
2:15 PM,64.4,46.4,52,30.23,10.0,ESE,6.9,-,N/A,,Clear,110,2011-11-08 19:15:00
2:35 PM,64.4,44.6,49,30.23,10.0,ESE,8.1,-,N/A,,Clear,120,2011-11-08 19:35:00
3:15 PM,64.4,44.6,49,30.23,10.0,ESE,5.8,-,N/A,,Clear,110,2011-11-08 20:15:00
3:35 PM,62.6,44.6,52,30.23,10.0,ESE,6.9,-,N/A,,Clear,120,2011-11-08 20:35:00
3:55 PM,62.6,44.6,52,30.23,10.0,ESE,4.6,-,N/A,,Clear,120,2011-11-08 20:55:00
4:15 PM,60.8,44.6,55,30.23,10.0,ESE,4.6,-,N/A,,Clear,120,2011-11-08 21:15:00
4:35 PM,60.8,44.6,55,30.23,10.0,SSE,3.5,-,N/A,,Clear,150,2011-11-08 21:35:00
4:55 PM,59.0,44.6,59,30.24,10.0,SSE,3.5,-,N/A,,Clear,150,2011-11-08 21:55:00
5:15 PM,57.2,44.6,63,30.23,10.0,South,4.6,-,N/A,,Clear,170,2011-11-08 22:15:00
5:35 PM,57.2,44.6,63,30.23,10.0,SSE,4.6,-,N/A,,Clear,160,2011-11-08 22:35:00
5:55 PM,55.4,44.6,67,30.24,10.0,SSE,3.5,-,N/A,,Clear,160,2011-11-08 22:55:00
6:15 PM,55.4,44.6,67,30.24,10.0,South,3.5,-,N/A,,Clear,170,2011-11-08 23:15:00
6:35 PM,53.6,44.6,72,30.24,10.0,South,4.6,-,N/A,,Clear,180,2011-11-08 23:35:00
6:55 PM,53.6,44.6,72,30.24,10.0,Calm,Calm,-,N/A,,Clear,0,2011-11-08 23:55:00
7:15 PM,53.6,46.4,77,30.24,10.0,SSW,4.6,-,N/A,,Clear,210,2011-11-09 00:15:00
7:35 PM,53.6,44.6,72,30.24,10.0,SSW,5.8,-,N/A,,Clear,200,2011-11-09 00:35:00
7:55 PM,53.6,44.6,72,30.24,10.0,SW,4.6,-,N/A,,Clear,220,2011-11-09 00:55:00
8:15 PM,53.6,44.6,72,30.24,10.0,SSW,5.8,-,N/A,,Clear,210,2011-11-09 01:15:00
8:35 PM,53.6,42.8,67,30.24,10.0,SSW,6.9,-,N/A,,Clear,210,2011-11-09 01:35:00
8:55 PM,55.4,42.8,63,30.24,10.0,SSW,4.6,-,N/A,,Clear,210,2011-11-09 01:55:00
9:15 PM,53.6,42.8,67,30.25,10.0,SW,3.5,-,N/A,,Clear,220,2011-11-09 02:15:00
9:35 PM,51.8,42.8,71,30.24,10.0,SW,3.5,-,N/A,,Clear,220,2011-11-09 02:35:00
9:55 PM,51.8,42.8,71,30.24,10.0,SW,5.8,-,N/A,,Clear,220,2011-11-09 02:55:00
10:15 PM,55.4,42.8,63,30.24,10.0,SW,5.8,-,N/A,,Clear,220,2011-11-09 03:15:00
10:35 PM,53.6,42.8,67,30.24,10.0,WSW,3.5,-,N/A,,Clear,240,2011-11-09 03:35:00
10:55 PM,51.8,42.8,71,30.24,10.0,WSW,3.5,-,N/A,,Clear,240,2011-11-09 03:55:00
11:15 PM,48.2,42.8,82,30.23,10.0,WSW,5.8,-,N/A,,Clear,250,2011-11-09 04:15:00
11:35 PM,51.8,42.8,71,30.23,10.0,WSW,5.8,-,N/A,,Clear,250,2011-11-09 04:35:00
11:55 PM,51.8,42.8,71,30.22,10.0,West,4.6,-,N/A,,Clear,260,2011-11-09 04:55:00